Weather in Simbirka

Russia / Kemerovo Oblast     56°02′44″N   87°10′08″E
temp.,
°C
wind,
m/s
gust,
m/s
humid.,
%
clouds,
%
prec.,
mm/h
press.,
hPa
HPBL,
m
8 may, sat
sat801:00+9wsw256098 0.0 1013142
04:00+7w37715 0.0 1015144
07:00+8sw396787 0.0 1015340
10:00+12w711416 0.0 10142009
13:00+14w812305 0.0 10132445
16:00+16wnw71531100 0.0 10123030
19:00+13nw3842100 0.1 10121709
22:00+10nnw3855100 0.0 1014612
9 may, sun
sun901:00+7nnw377055 0.0 1015400
04:00+3wnw38825 0.0 1017296
07:00+4nw36785 0.0 1018458
10:00+7nnw455688 0.1 10181563
13:00+8n4547100 0.1 10191596
16:00+10n4545100 0.0 10202009
19:00+9n454840 0.1 10211542
22:00+5ne23758 0.0 102252
10 may, mon
mon1001:00+3nne26845 0.0 1023139
04:00+1ne24945 0.0 1023102
07:00+3ene35855 0.0 1024226
10:00+8ene466028 0.0 10241117
13:00+11ene555042 0.0 10221590
16:00+12ene57474 0.0 10221363
19:00+12ene58490 0.0 10201442
22:00+8e411640 0.0 1020387
11 may, tue
tue1101:00+5ene39770 0.0 1019220
04:00+3ne310855 0.0 1018243
07:00+6ene4127340 0.0 1018387
10:00+12ene6104977 0.0 10171306
13:00+15ene6938100 0.0 10161824
16:00+16ene6834100 0.0 10142051
19:00+14ene4841100 0.0 1015975
22:00+10ne2357100 0.0 101639
12 may, wed
wed1201:00+8ene31164100 0.0 1016345
04:00+7ene4973100 0.0 1017339
07:00+6ene41083100 0.0 1018421
10:00+10ene5761100 0.0 1018872
13:00+13ene5645100 0.0 10171715
16:00+14ene5735100 0.0 10171993
19:00+13ene463991 0.0 10171620
22:00+9ene4115069 0.0 1020349